Torna al catalogo

BREEZE-M R/B

AttivoHEO
NORAD 39173·ROCKET BODY·🇷🇺 Russia

Lanciato Jun 3, 2013 da Baikonur Cosmodrome

Loading…

Prossimi Passaggi (prossime 24 ore)

TLE

AggiornatoSource: Space-Track

Epoca: Sep 13, 2026, 23:02 UTC

1 39173U 13026B   26256.96005349 -.00000289  00000-0  00000-0 0  9992
2 39173  27.3178 298.2965 7672211 208.5876  68.1210  1.10515958 53232

Traccia BREEZE-M R/B in tempo reale con AllMySat

Download on the App Store